Regional Weather Roundup
Issued by NWS Midland/Odessa, TX

Skip options and go directly to product.
Home | Oldest Version | Previous Version | Current Version | All | Text Only | Save Text | Print | Product List | Glossary On

Skip product version selection by date and time.   
296
ASUS44 KMAF 290710
RWRMAF
MIDLAND AREA WEATHER ROUNDUP
NATIONAL WEATHER SERVICE MIDLAND TX
200 AM CDT WED JUN 29 2016

...IN SOUTHWEST TEXAS AND SOUTHEAST NEW MEXICO...

CITY           SKY/WX    TMP DP  RH WIND       PRES   REMARKS
ALPINE         CLEAR     68  62  81 S5        30.28F
ANDREWS        FAIR      70  63  78 SE6       30.20S
ARTESIA        CLEAR     72  57  60 W7        30.19S
BIG SPRING     PTCLDY    70  63  79 NE3       30.19S
CARLSBAD       CLOUDY    70  63  78 W5        30.17R
DRYDEN           N/A     73  65  75 N3        30.10S
FORT STOCKTON  CLOUDY    74  64  71 SE9       30.15S
GUAD PASS      CLEAR     68  58  70 NE16      30.31S
HOBBS          CLEAR     68  59  73 CALM      30.22F
MARFA          CLEAR    N/A N/A N/A NE6       30.27R
MIDLAND AIRPK  CLEAR     74  66  76 E5        30.18S
MIDLAND INTL   CLEAR     73  66  78 E6        30.17R
ODESSA         CLEAR     73  65  75 SE6       30.18S
PECOS          CLOUDY    76  65  70 E6        30.13R
PRESIDIO       FAIR      73  67  81 N6        30.11S
SEMINOLE       MOCLDY    68  61  78 CALM      30.22S
SNYDER           N/A     70  62  76 NE9       30.17F
WINK           CLOUDY    75  65  70 E6        30.14S
$$
...OTHER STATIONS IN TEXAS...

CITY           SKY/WX    TMP DP  RH WIND       PRES   REMARKS
ABILENE        PTCLDY    71  68  90 N5        30.13F
AMARILLO       CLEAR     66  60  81 SE18G28   30.21F
AUSTIN         PTCLDY    72  72 100 CALM      30.02F
BROWNSVILLE    CLEAR     77  75  93 SE5       29.98F
CORPUS CHRISTI CLOUDY    77  73  87 W5        29.97F
DALLAS FTW     MOCLDY    80  69  69 W3        29.99F
DEL RIO        PTCLDY    73  72  96 CALM      30.03F
EL PASO        MOCLDY    75  62  64 N6        30.19S
HOUSTON INT    MOCLDY    74  73  97 CALM      29.97F
LUBBOCK        PTCLDY    68  61  78 SE16      30.21F
SAN ANGELO     CLOUDY    74  71  91 N3        30.10F
SAN ANTONIO    CLOUDY    74  69  85 CALM      30.03F
WACO           CLEAR     70  68  93 W5        30.00F
WICHITA FALLS  NOT AVBL
$$
...OTHER LOCATIONS IN NEW MEXICO...

CITY           SKY/WX    TMP DP  RH WIND       PRES   REMARKS
ALAMAGORDO     CLEAR     66  57  72 NE6       30.22F
ALBUQUERQUE    PTCLDY    73  45  36 CALM      30.28S
CANNON AFB     CLEAR     67  60  75 S9        30.25R
CLOVIS         CLEAR     70  57  64 S10       30.26R
HOLLOMAN AFB   CLOUDY    67  55  66 N5        30.20F
ROSWELL        CLEAR     74  54  49 SW7       30.19R
RUIDOSO          N/A     59  50  72 NW3       30.43R
SANTA FE       CLEAR     61  49  64 N10       30.35S
TRUTH OR CONSE MOCLDY    72  56  57 W5        30.26S
TUCUMCARI      MOCLDY    71  56  58 W7        30.19R
$$

USA.gov is the U.S. government's official web portal to all federal, state and local government web resources and services.